Regional Weather Roundup
Issued by NWS

Home | Current Version | Previous Version | Graphics & Text | Print | Product List | Glossary Off
Versions: 1 2 3 4 5 6 7 8 9 10 11 12 13 14 15 16 17 18 19 20 21 22 23 24 25 26 27 28 29 30 31 32 33 34 35 36 37 38 39 40 41 42 43 44 45 46 47 48 49 50

000
ASUS43 KMPX 180510
RWRMN
WEATHER ROUNDUP FOR MINNESOTA
NATIONAL WEATHER SERVICE TWIN CITIES/CHANHASSEN MN
1200 AM CDT FRI AUG 18 2017


NOTE: "FAIR" INDICATES FEW OR NO CLOUDS BELOW 12,000 FEET WITH NO
SIGNIFICANT WEATHER AND/OR OBSTRUCTIONS TO VISIBILITY. N/A MEANS
CURRENT SKY AND/OR WEATHER CONDITIONS ARE NOT AVAILABLE.

MNZ060>063-068>070-180600-
   Twin Cities Metro

CITY           SKY/WX    TMP DP  RH WIND       PRES   REMARKS
TWIN CITIES    CLEAR     64  58  80 NW5       29.85R
ST PAUL        CLEAR     63  59  87 NW7       29.84S
CRYSTAL        CLEAR     62  57  83 W5        29.83S
BLAINE         CLEAR     63  61  94 W6        29.84S
LAKEVILLE      CLEAR     61  61 100 W3        29.85S
EDEN PRAIRIE   CLEAR     64  60  87 NW3       29.84S
SOUTH ST PAUL  CLEAR     65  58  75 NW5       29.83S
LAKE ELMO      FAIR      63  59  88 NW6       29.85R
$$
MNZ001>005-007-008-013>017-022>024-027-028-180600-
   Northwest Minnesota

CITY           SKY/WX    TMP DP  RH WIND       PRES   REMARKS
BEMIDJI        CLEAR     56  55  96 CALM      29.85S
HALLOCK        CLEAR     61  55  82 CALM      29.83S
ROSEAU         CLEAR     59  54  82 CALM      29.83S
WARROAD        CLEAR     57  55  94 CALM      29.83F
THIEF RVR FALL CLEAR     60  57  89 CALM      29.86R
CROOKSTON      CLEAR     61  57  88 SW3       29.85S
FOSSTON        CLEAR     55  54  94 CALM      29.86F
DETROIT LAKES  CLEAR     61  59  94 CALM      29.88S
MOORHEAD       PTCLDY    63  57  82 CALM      29.86F
PARK RAPIDS    CLEAR     60  56  86 CALM      29.85S
MAHNOMEN       FAIR      60  57  91 S3        29.86S
$$
MNZ006-009>011-018-025>026-180600-
   North Central Minnesota

CITY           SKY/WX    TMP DP  RH WIND       PRES   REMARKS
BAUDETTE       CLEAR     55  55 100 CALM      29.81F
FLAG ISLAND    CLEAR     66  55  68 CALM      29.80S
INTL FALLS     FOG       51  50  96 CALM      29.82S VSB 1/2
WASKISH        CLEAR     54  54 100 CALM      29.83S FOG
BIG FORK       CLEAR     52  50  93 CALM      29.82F FOG
LONGVILLE      MOCLDY    55  55 100 CALM      29.85R FOG
GRAND RAPIDS   FOG       54  54 100 CALM      29.85S VSB 3/4
CRANE LAKE     PTCLDY    52  52 100 CALM      29.83S FOG
ORR            CLEAR     55  54  94 CALM      29.80R
COOK             N/A     55  54  94 CALM      29.82S FOG
WALKER         FAIR      56  56  99 CALM      29.86R
$$
MNZ012-019>021-037-180600-
   Northeast Minnesota

CITY           SKY/WX    TMP DP  RH WIND       PRES   REMARKS
DULUTH         PTCLDY    59  59 100 NW14G21   29.78S
ELY            CLOUDY    61  57  88 NW5       29.79S
HIBBING        CLEAR     53  53 100 NW5       29.81S
EVELETH        CLEAR     59  55  87 N3        29.82S
DULUTH HARBOR  CLEAR     64  61  88 NW9       29.78S
TWO HARBORS    CLOUDY    64  61  88 N6        29.74S
SILVER BAY     MOCLDY    64  59  82 NW7       29.74R
GRAND MARAIS     N/A     64  59  83 CALM      29.69S
G MARAIS ARPRT CLOUDY    57  54  88 NW12G17   29.72F FOG
$$
MNZ029>031-032-039>041-046>048-054>057-064-180600-
   West Central Minnesota

CITY           SKY/WX    TMP DP  RH WIND       PRES   REMARKS
FERGUS FALLS   CLOUDY    63  63 100 CALM      29.86F
WHEATON        CLOUDY    63  57  82 SW3       29.89S
MORRIS         CLEAR     61  61 100 W5        29.88R
ALEXANDRIA     CLEAR     60  59  96 W3        29.89S
ELBOW LAKE     FAIR      60  60  98 CALM      29.87F
WADENA         CLEAR     57  57 100 CALM      29.86F
GLENWOOD       CLEAR     61  59  94 W6        29.88S
APPLETON       CLEAR     63  59  88 SW7       29.88R
BENSON         CLEAR     61  57  88 W3        29.90R FOG
ORTONVILLE     PTCLDY    64  61  88 MISG      29.89S
MADISON        CLOUDY    63  63 100 CALM      29.90R
WILLMAR        FAIR      63  61  94 CALM      29.89S
$$
MNZ033>034-036-042>043-049>051-058-059-180600-
   Central Minnesota

CITY           SKY/WX    TMP DP  RH WIND       PRES   REMARKS
ST CLOUD       CLEAR     57  57 100 CALM      29.85S
SAUK CENTRE    FAIR      58  57  98 CALM      29.87S
PAYNESVILLE    CLEAR     57  57  99 CALM      29.87F
AITKIN         MOCLDY    50  48  93 W3        29.84R FOG
PINE RIVER       N/A     52  52 100 CALM      29.89S FOG
BRAINERD       CLEAR     57  56  96 CALM      29.85S
STAPLES        CLEAR     57  57 100 CALM      29.85F
LONG PRAIRIE   FAIR      55  55 100 CALM      29.87F FOG
LITTLE FALLS     N/A     55  54  94 CALM      29.86S FOG
LITCHFIELD     CLEAR     63  61  94 CALM      29.87F
BUFFALO        CLEAR     58  55  91 CALM      29.86F
MAPLE LAKE     CLEAR     59  58  98 CALM      29.87S FOG
HUTCHINSON     CLEAR     59  58  99 CALM      29.88S
$$
MNZ037-044-045-052-053-180600-
   East Central Minnesota

CITY           SKY/WX    TMP DP  RH WIND       PRES   REMARKS
PRINCETON      CLEAR     57  57 100 W3        29.85S
MORA           CLEAR     55  55 100 NW3       29.86R
RUSH CITY      HVY RAIN  58  56  94 CALM      29.84R
MOOSE LAKE     CLEAR     57  55  94 NW5       29.81R
HINCKLEY       FAIR      59  59 100 W3        29.83R
CLOQUET        CLEAR     59  55  88 NW9       29.80F
MCGREGOR       CLEAR     57  54  88 CALM      29.84S
$$
MNZ071>073-080-081-089-090-097-098-180600-
   Southwest Minnesota

CITY           SKY/WX    TMP DP  RH WIND       PRES   REMARKS
MONTEVIDEO     CLEAR     63  61  94 W5        29.89R
GRANITE FALLS  CLEAR     61  60  97 W6        29.91R
CANBY          PTCLDY    61  58  92 CALM      29.92R
MARSHALL       CLOUDY    59  57  93 SW5       29.91R
REDWOOD FALLS  CLEAR     64  60  87 W6        29.88S
OLIVIA         CLEAR     59  57  94 CALM      29.88R
PIPESTONE      CLOUDY    64  61  88 SE3       29.92S
WINDOM         CLEAR     57  55  94 CALM      29.91S
WORTHINGTON    CLEAR     59  57  93 CALM      29.93R
JACKSON        CLEAR     55  55 100 CALM      29.92R
TRACY          CLEAR     63  60  88 W3        29.91S
SLAYTON        CLOUDY    57  51  81 CALM      29.93S
$$
MNZ065>067-074>077-082>085-091>093-180600-
   South Central Minnesota

CITY           SKY/WX    TMP DP  RH WIND       PRES   REMARKS
MANKATO        CLEAR     61  60  97 W3        29.87S
NEW ULM        CLEAR     59  57  94 W5        29.88S
ST JAMES       CLEAR     61  57  88 CALM      29.90R
FAIRMONT       CLEAR     61  59  93 W5        29.90R
GLENCOE        CLEAR     61  61 100 CALM      29.86S
FARIBAULT      CLEAR     61  61 100 W3        29.87R
OWATONNA       CLEAR     59  57  94 CALM      29.87S
WASECA         CLEAR     55  55 100 CALM      29.89R
ALBERT LEA     CLEAR     66  64  94 W5        29.87S
$$
MNZ078>079-086>088-094>096-180600-
   Southeast Minnesota

CITY           SKY/WX    TMP DP  RH WIND       PRES   REMARKS
ROCHESTER      CLOUDY    65  61  87 NW8       29.86S
RED WING       CLOUDY    70  59  68 NW6       29.81S
STANTON        CLEAR     62  59  89 W5        29.84R
DODGE CENTER   CLEAR     64  59  82 W7        29.86S
WINONA         CLOUDY    70  63  78 NW6       29.81S
AUSTIN         CLEAR     63  61  94 W3        29.86S
PRESTON        CLOUDY    65  60  85 NW7       29.86S
$$
ABBREVIATIONS USED IN REMARKS
   TC - TEMPERATURES IN CELSIUS
  WCI - WIND CHILL INDEX
   HX - HEAT INDEX
  VSB - VISIBILITY
$$




USA.gov is the U.S. government's official web portal to all federal, state and local government web resources and services.